Regional Weather Roundup
Issued by NWS

Home | Current Version | Previous Version | Text Only | Print | Product List | Glossary Off
Versions: 1 2 3 4 5 6 7 8 9 10 11 12 13 14 15 16 17 18 19 20 21 22 23 24 25 26 27 28 29 30 31 32 33 34 35 36 37 38 39 40 41 42 43 44 45 46 47 48 49 50

000
ASUS43 KDTX 131810
RWRMI
MICHIGAN HOURLY REGIONAL WEATHER ROUNDUP
NATIONAL WEATHER SERVICE DETROIT/PONTIAC MI
100 PM EST WED DEC 13 2017

NOTE: "FAIR" INDICATES FEW OR NO CLOUDS BELOW 12,000 FEET WITH NO
SIGNIFICANT WEATHER AND/OR OBSTRUCTION TO VISIBILITY.

MIZ047>049-052>055-059>063-066>070-074>076-081>083-131900-
SOUTHEAST LOWER MICHIGAN

CITY           SKY/WX    TMP DP  RH WIND       PRES   REMARKS
ADRIAN         LGT SNOW  20  15  81 S14       29.56F WCI   7
6HR MIN TEMP:  16; 6HR MAX TEMP:  20; 6HR PCP: TRACE;

ALMA           LGT SNOW  19  17  90 SE8       29.57F WCI   9
6HR MIN TEMP:  17; 6HR MAX TEMP:  19;

ANN ARBOR      FLURRIES  18  14  84 E9        29.59F WCI   7
BAD AXE        LGT SNOW  17  10  77 S7        29.65F WCI   7
6HR MIN TEMP:  13; 6HR MAX TEMP:  17;

CARO           LGT SNOW  19  14  82 SE6       29.62F WCI  10
DETROIT CITY   LGT SNOW  21  16  81 SW10      29.66F VSB 3/4 WCI  10
6HR MIN TEMP:  15; 6HR MAX TEMP:  21; 6HR PCP: TRACE;

DETROIT        LGT SNOW  21  16  81 S10       29.64F VSB 1   WCI  10
6HR MIN TEMP:  17; 6HR MAX TEMP:  21; 6HR PCP:  0.07;

FLINT          LGT SNOW  19  15  84 SE12      29.59F VSB 1   WCI   7
6HR MIN TEMP:  15; 6HR MAX TEMP:  19; 6HR PCP:  0.07;

GROSSE ILE     LGT SNOW  22  18  86 S15       29.65F VSB 3/4 WCI   8
6HR MIN TEMP:  18; 6HR MAX TEMP:  22;

HILLSDALE      CLOUDY    21  14  73 SE14      29.50F WCI   8
HOWELL         LGT SNOW  18  15  86 SE14      29.56F WCI   5
6HR MIN TEMP:  16; 6HR MAX TEMP:  18;


CITY           SKY/WX    TMP DP  RH WIND       PRES   REMARKS
JACKSON        LGT SNOW  19  13  77 E15       29.51F VSB 1   WCI   5
6HR MIN TEMP:  17; 6HR MAX TEMP:  19; 6HR PCP:  0.03;

LAMBERTVILLE   FLURRIES  20  15  81 S8        29.62F WCI  11
6HR MIN TEMP:  18; 6HR MAX TEMP:  20;

LANSING        FLURRIES  19  14  81 SE16      29.54F WCI   4
6HR MIN TEMP:  17; 6HR MAX TEMP:  19; 6HR PCP:  0.12;

LAPEER         LGT SNOW  19  15  84 SE7       29.62F VSB 1   WCI  10
6HR MIN TEMP:  15; 6HR MAX TEMP:  19;

MASON          LGT SNOW  19  12  74 SE14      29.54F WCI   6
6HR MIN TEMP:  17; 6HR MAX TEMP:  19;

MONROE         LGT SNOW  20  15  80 SE8       29.62F WCI  10
6HR MIN TEMP:  18; 6HR MAX TEMP:  20;

MT. CLEMENS    LGT SNOW  21  19  93 S6        29.64F VSB 7/8 WCI  13
6HR MIN TEMP:  15; 6HR MAX TEMP:  21; 6HR PCP:  0.01;

PONTIAC        SNOW      18  16  92 S9        29.60F VSB 1/2 WCI   7
6HR MIN TEMP:  14; 6HR MAX TEMP:  19; 6HR PCP: TRACE;

PORT HOPE        N/A     17   8  67 VRB5      29.66F WCI  10
6HR MIN TEMP:  15; 6HR MAX TEMP:  17;

PORT HURON     LGT SNOW  19  14  79 SE6       29.66F WCI  11
TRI CITIES     SNOW      19  17  92 E10       29.61F VSB 1/2 WCI   7
6HR MIN TEMP:  15; 6HR MAX TEMP:  19; 6HR PCP:  0.02;

MIDLAND        LGT SNOW  19  16  85 E9        29.60F VSB 1   WCI   9
6HR MIN TEMP:  16; 6HR MAX TEMP:  20;

TROY           LGT SNOW  22  18  85 S10       29.65F VSB 3/4 WCI  11
SAGINAW HB     LGT SNOW  19  18  93 SE7       29.61F WCI  10
$$
MIZ043>046-050>051-056>058-064>065-071>073-077>080-131900-
SOUTHWEST LOWER MICHIGAN

CITY           SKY/WX    TMP DP  RH WIND       PRES   REMARKS
BATTLE CREEK   CLOUDY    23  14  68 SE13      29.46F WCI  11
6HR MIN TEMP:  17; 6HR MAX TEMP:  23; 6HR PCP: TRACE;

BENTON HARBOR  CLOUDY    28  12  51 SE14      29.40F WCI  17
6HR MIN TEMP:  21; 6HR MAX TEMP:  28; 6HR PCP: TRACE;

BIG RAPIDS     SNOW      17  14  88 SE13      29.48F VSB<1/4 WCI   4
6HR MIN TEMP:  16; 6HR MAX TEMP:  18;

COLDWATER      CLOUDY    24  13  62 SE14G20   29.47F WCI  12
6HR MIN TEMP:  18; 6HR MAX TEMP:  24;

FREMONT        CLOUDY    19  16  86 E16G23    29.44F WCI   5
6HR MIN TEMP:  17; 6HR MAX TEMP:  19;

HOLLAND        CLOUDY    24  14  65 SE15      29.41F WCI  11
6HR MIN TEMP:  19; 6HR MAX TEMP:  24; 6HR PCP: TRACE;

GRAND RAPIDS   FLURRIES  20  15  81 SE17      29.47F WCI   5
6HR MIN TEMP:  18; 6HR MAX TEMP:  20; 6HR PCP:  0.11;

IONIA          FLURRIES  19  15  82 E15       29.50F WCI   5
6HR MIN TEMP:  18; 6HR MAX TEMP:  19;

KALAMAZOO      CLOUDY    24  13  62 SE10G18   29.44F WCI  14
6HR MIN TEMP:  18; 6HR MAX TEMP:  24; 6HR PCP: TRACE;

LUDINGTON      LGT SNOW  19  16  86 E13       29.44F VSB 3/4 WCI   7
6HR MIN TEMP:  18; 6HR MAX TEMP:  20;

MARSHALL       CLOUDY    22  13  70 SE15      29.48F WCI   8
6HR MIN TEMP:  16; 6HR MAX TEMP:  22;

MOUNT PLEASANT LGT SNOW  19  15  81 E10       29.56F VSB 1   WCI   8
6HR MIN TEMP:  17; 6HR MAX TEMP:  19;

MUSKEGON       CLOUDY    22  14  71 E16G24    29.43F WCI   8
6HR MIN TEMP:  19; 6HR MAX TEMP:  22; 6HR PCP:  0.04;

SOUTH HAVEN    CLOUDY    28  12  50 SE9G18    29.41S WCI  19
$$
MIZ016>042-131900-
NORTHERN LOWER MICHIGAN

CITY           SKY/WX    TMP DP  RH WIND       PRES   REMARKS
ALPENA         CLOUDY    15   7  70 SW3       29.67F
6HR MIN TEMP:   6; 6HR MAX TEMP:  15;

BEAVER ISLAND  LGT SNOW  18  13  83 E13G21    29.60F WCI   4
6HR MIN TEMP:  16; 6HR MAX TEMP:  18;

BELLAIRE       LGT SNOW  16  13  87 E5        29.59F WCI   9
6HR MIN TEMP:  13; 6HR MAX TEMP:  16;

CADILLAC       LGT SNOW  15  12  88 E16       29.47F VSB 3/4 WCI   0
CHARLEVOIX     LGT SNOW  16  12  84 E10       29.62F WCI   4
6HR MIN TEMP:  14; 6HR MAX TEMP:  17;

FRANKFORT      LGT SNOW  21  17  84 E6        29.49F VSB 3/4 WCI  13
GAYLORD        SNOW      11   6  81 E5        29.56F VSB 1/2 WCI   3
6HR MIN TEMP:   8; 6HR MAX TEMP:  11; 6HR PCP:  0.01;

GRAYLING       LGT SNOW  14   9  78 E9        29.56F WCI   2
6HR MIN TEMP:  10; 6HR MAX TEMP:  14;

HARBOR SPRINGS LGT SNOW  13   8  77 E12       29.61F WCI   0
HOUGHTON LAKE  LGT SNOW  15   9  76 E13       29.55F WCI   1
6HR MIN TEMP:  11; 6HR MAX TEMP:  15; 6HR PCP:  0.07;

MANISTEE       SNOW      19  16  88 E13G22    29.46F VSB 1/4 WCI   6
OSCODA         CLOUDY    17   6  64 CALM      29.66F
6HR MIN TEMP:   7; 6HR MAX TEMP:  17;

PELLSTON       LGT SNOW  14   8  77 SE8       29.64F WCI   3
6HR MIN TEMP:  10; 6HR MAX TEMP:  14; 6HR PCP: TRACE;

ROGERS CITY    CLOUDY    15   6  68 S6        29.67F WCI   6
TRAVERSE CITY  LGT SNOW  18  14  84 E13       29.54F VSB 3/4 WCI   5
6HR MIN TEMP:  16; 6HR MAX TEMP:  19; 6HR PCP:  0.03;

$$
MIZ007>008-015-131900-
EASTERN UPPER MICHIGAN

CITY           SKY/WX    TMP DP  RH WIND       PRES   REMARKS
KINROSS        CLOUDY     5  -3  69 E6        29.67F WCI  -6
6HR MIN TEMP:  -9; 6HR MAX TEMP:   5;

MACKINAC ISLAN LGT SNOW  14  11  85 E13       29.64F VSB 3/4 WCI   0
6HR MIN TEMP:   9; 6HR MAX TEMP:  15;

NEWBERRY       MOSUNNY    4  -1  81 NE9       29.64F WCI -11
6HR MIN TEMP:   0; 6HR MAX TEMP:   4;

S. S. MARIE    SUNNY      6  -4  63 VRB5      29.68F WCI  -3
6HR MIN TEMP:  -8; 6HR MAX TEMP:   6; 6HR PCP: TRACE;

MUNISING         N/A     14  10  84 VRB6      29.62F WCI   5
6HR MIN TEMP:  10; 6HR MAX TEMP:  15; 6HR PCP:  0.03;

$$
MIZ004>006-011>014-085-131900-
CENTRAL UPPER MICHIGAN

CITY           SKY/WX    TMP DP  RH WIND       PRES   REMARKS
MANISTIQUE     LGT SNOW  15  10  81 NE10      29.59F WCI   2
6HR MIN TEMP:   9; 6HR MAX TEMP:  15;

ESCANABA       LGT SNOW  22  19  89 NE12      29.53F VSB 3/4 WCI  10
6HR MIN TEMP:  14; 6HR MAX TEMP:  22; 6HR PCP: TRACE;

MENOMINEE      LGT SNOW  26  24  92 E17       29.47F FOG     WCI  13
6HR MIN TEMP:  20; 6HR MAX TEMP:  26; 6HR PCP:  0.03;

SAWYER-GWINN   LGT SNOW  14  10  85 E9        29.55F WCI   2
$$
MIZ001>003-009>011-084-131900-
WESTERN UPPER MICHIGAN

CITY           SKY/WX    TMP DP  RH WIND       PRES   REMARKS
IRON MOUNTAIN  SNOW      17  13  84 NE9       29.47F VSB 1/2 WCI   6
6HR MIN TEMP:  11; 6HR MAX TEMP:  17; 6HR PCP:  0.08;

HOUGHTON       LGT SNOW  18  18 100 E6        29.59F WCI   9
COPPER HARBOR    N/A     22  15  75 SE8G18    29.64S WCI  12
6HR MIN TEMP:  18; 6HR MAX TEMP:  22; 6HR PCP:  0.07;

IRONWOOD       LGT SNOW  15  10  80 NE8       29.55R WCI   4
6HR MIN TEMP:  12; 6HR MAX TEMP:  15;

$$

ABBREVIATIONS USED IN REMARKS
   TC - TEMPERATURE IN CELSIUS
  WCI - WIND CHILL INDEX
   HX - HEAT INDEX
  VSB - VISIBILITY





USA.gov is the U.S. government's official web portal to all federal, state and local government web resources and services.